Regional Weather Roundup
Issued by NWS Jackson, KY

Home | Current Version | Previous Version | Graphics & Text | Print | Product List | Glossary On
Versions: 1 2 3 4 5 6 7 8 9 10 11 12 13 14 15 16 17 18 19 20 21 22 23 24 25 26 27 28 29 30 31 32 33 34 35 36 37 38 39 40 41 42 43 44 45 46 47 48 49 50
000
ASUS43 KJKL 232310
RWRJKL

EAST KENTUCKY HOURLY WEATHER ROUNDUP
NATIONAL WEATHER SERVICE JACKSON KY
700 PM EDT SAT JUL 23 2016

NOTE: "FAIR" INDICATES FEW OR NO CLOUDS BELOW 12,000 FEET WITH
NO SIGNIFICANT WEATHER AND/OR OBSTRUCTIONS TO VISIBILITY.

* THESE REPORTS ARE NOT UNDER NWS QUALITY CONTROL AND MAY NOT
  REPORT WEATHER SUCH AS PRECIPITATION AND FOG.

KYZ079-080-083-085-087-088-110-112-115-119-120-240000
...EASTERN KENTUCKY...

CITY           SKY/WX    TMP DP  RH WIND       PRES   REMARKS
JACKSON        SUNNY     88  72  58 CALM      30.01S HX  94
LONDON         SUNNY     90  68  48 NE6       29.99F HX  94
SOMERSET*      PTSUNNY   88  70  55 S3        29.98F HX  92
MONTICELLO*    SUNNY    N/A N/A N/A W10       29.99F
WILLIAMSBURG*  CLEAR     86  73  66 CALM      29.99F HX  93
MIDDLESBORO*   MOSUNNY   90  73  56 CALM      30.00S HX  97
HARLAN APT*      N/A     81  68  65 NE3       30.02F
PIKE CO APT*     N/A     83  68  61 CALM      30.02F
MOREHEAD APT*  CLEAR     90  70  51 CALM      30.00F HX  95
ASHLAND*       CLOUDY    90  77  66 CALM      29.95S HX 102
$$

KYZ035-036-041-042-044-050-067-078-099-240000
...CENTRAL KENTUCKY...

CITY           SKY/WX    TMP DP  RH WIND       PRES   REMARKS
MT STERLING*   MOSUNNY   90  72  55 CALM      30.00S HX  96
FLEMING/MASON* MOSUNNY   90  74  59 NE3       29.99F HX  98
DANVILLE*      PTSUNNY   90  72  55 CALM      29.98F HX  96
RICHMOND*      SUNNY     91  70  49 CALM      29.98S HX  97
LEXINGTON      SUNNY     92  69  47 W3        29.97F HX  97
FRANKFORT      SUNNY     91  70  49 NW3       29.95F HX  96
LOUISVILLE     MOSUNNY   93  69  45 E5        29.92F HX  98
LEBANON*         N/A     91  72  52 CALM      29.96F HX  98
GLASGOW*       SUNNY     91  73  55 E6        29.95S HX  98
BOWLING GREEN  PTSUNNY   91  75  59 E3        29.93F HX 101
$$

KYZ091>093-OHZ055-061-077-WVZ005-015-034-035-042-240000
...SOUTHERN OHIO/WEST VIRGINIA...

CITY           SKY/WX    TMP DP  RH WIND       PRES   REMARKS
COVINGTON      MOSUNNY   91  72  53 W7        29.96F HX  98
COLUMBUS       PTSUNNY   88  70  55 NW6       29.95F HX  93
DAYTON         PTSUNNY   88  72  58 W9        29.97F HX  94
WILMINGTON     PTSUNNY   88  73  61 E3        29.96F HX  95
HUNTINGTON       N/A     90  72  55 W3        29.97R HX  97
CHARLESTON       N/A     91  70  49 VRB6      29.97F HX  96
PINEVILLE*       N/A     84  71  65 MISG      30.08S
BECKLEY          N/A     84  67  56 CALM      30.07F
BLUEFIELD        N/A     82  66  58 E3        30.11F
LOGAN CO APT*    N/A     86  72  62 W3        30.01F HX  92
$$

VAZ002-007-008-TNZ017-027-036-066-071-240000
...SOUTHWEST VIRGINIA/EAST TENNESSEE...

CITY           SKY/WX    TMP DP  RH WIND       PRES   REMARKS
WISE*            N/A     75  59  57 CALM      30.11F
JONESVILLE*      N/A     91  73  55 N5        30.01F HX 100
ABINGDON*        N/A     86  66  51 N3        30.04F
BRISTOL        PTSUNNY   91  66  43 E7        30.01R THUNDER HX  93
MORRISTOWN*    CLEAR     86  68  54 VRB6      30.00R
SEVIERVILLE*   PTCLDY    82  70  65 S9        30.01R
KNOXVILLE      CLOUDY    79  68  69 SW8       30.00R
OAK RIDGE      CLOUDY    79  71  76 VRB7G18   30.05R
CROSSVILLE     CLOUDY    77  70  79 CALM      30.09R
NASHVILLE      PTSUNNY   90  69  50 CALM      29.93F HX  94
$$

...KEY TO REMARKS...
VSB - VISIBILITY IN MILES
WCI - WIND CHILL INDEX
HX  - HEAT INDEX

$$



USA.gov is the U.S. government's official web portal to all federal, state and local government web resources and services.